📊 Raw Sensor Data

Showing records 43126 to 43150 of 85,012 total

ID Distance (ft) Battery V Battery A Int Temp (°F) Int Humid (%) Ext Temp (°F) Solar V RSSI SNR Time Stamp
41899 15.6 3.91 0 83 42 77 5.10 -75 8 05/28/2025 01:30 PM
41898 15.7 3.93 9 83 42 77 5.10 -73 8 05/28/2025 01:15 PM
41897 15.7 3.91 0 82 42 76 5.10 -75 8 05/28/2025 01:00 PM
41896 15.6 3.95 9 81 42 76 5.10 -74 7 05/28/2025 12:45 PM
41895 15.7 3.91 9 80 42 76 5.10 -75 7 05/28/2025 12:30 PM
41894 15.7 3.91 0 79 42 75 5.10 -74 8 05/28/2025 12:15 PM
41893 15.7 3.91 10 77 43 77 5.10 -74 8 05/28/2025 12:00 PM
41892 15.7 3.91 0 76 43 74 5.10 -73 7 05/28/2025 11:45 AM
41891 15.7 3.91 10 75 43 74 5.10 -76 8 05/28/2025 11:30 AM
41890 15.7 3.91 0 75 42 73 5.10 -73 8 05/28/2025 11:15 AM
41889 15.8 3.91 0 74 42 74 5.10 -75 7 05/28/2025 11:00 AM
41888 15.8 3.91 10 73 42 74 5.10 -74 7 05/28/2025 10:45 AM
41887 15.8 3.96 0 72 42 72 5.10 -74 7 05/28/2025 10:38 AM
41886 15.8 3.91 10 71 42 71 5.10 -74 7 05/28/2025 10:24 AM
41885 15.8 3.91 0 70 43 70 5.10 -73 8 05/28/2025 10:08 AM
41884 15.8 3.90 10 69 42 69 5.10 -74 8 05/28/2025 09:38 AM
41883 15.8 3.95 10 68 43 65 5.10 -73 8 05/28/2025 09:23 AM
41882 15.8 3.90 10 67 43 71 5.10 -73 7 05/28/2025 09:08 AM
41881 15.8 3.94 9 66 43 67 5.10 -72 8 05/28/2025 08:53 AM
41880 15.8 3.90 8 65 43 70 5.10 -72 8 05/28/2025 08:38 AM
41879 15.8 3.94 10 64 43 70 5.10 -73 7 05/28/2025 08:23 AM
41878 15.7 4.03 10 61 43 66 5.10 -73 8 05/28/2025 07:53 AM
41877 15.7 3.89 7 60 42 64 5.10 -73 8 05/28/2025 07:38 AM
41876 15.7 4.02 20 59 42 63 4.50 -73 8 05/28/2025 07:23 AM
41875 15.7 3.99 10 58 41 64 4.50 -73 8 05/28/2025 07:08 AM